Regional Weather Roundup
Issued by NWS

Home | Current Version | Previous Version | Graphics & Text | Print | Product List | Glossary On
Versions: 1 2 3 4 5 6 7 8 9 10 11 12 13 14 15 16 17 18 19 20 21 22 23 24 25 26 27 28 29 30 31 32 33 34 35 36 37 38 39 40 41 42 43 44 45 46 47 48 49 50
000
ASUS43 KMKX 211900
RWRWI

WISCONSIN REGIONAL WEATHER ROUNDUP
NATIONAL WEATHER SERVICE MILWAUKEE/SULLIVAN WI
100 PM CST SUN DEC 21 2014

NOTE: "FAIR" INDICATES FEW OR NO CLOUDS BELOW 12,000 FEET WITH NO
SIGNIFICANT WEATHER AND/OR OBSTRUCTIONS TO VISIBILITY.

WIZ001-002-006>008-014>016-023>028-212000-
NORTHWEST WISCONSIN

CITY           SKY/WX    TMP DP  RH WIND       PRES   REMARKS
SUPERIOR ARPT  MIX PCPN  32  32  99 CALM      29.83F VSB 3/4
ASHLAND        LGT SNOW  33  31  92 VRB3      29.86F VSB 1
HAYWARD        SNOW      32  30  92 S8        29.83F VSB 1/2 WCI  25
SIREN          LGT SNOW  33  32  96 SE7       29.81F WCI  27
CUMBERLAND     LGT SNOW  32  32 100 SE8       29.82F VSB 3/4 WCI  25
RICE LAKE      LGT SNOW  32  32  99 SE10      29.86F VSB 1   WCI  24
CHETEK         LGT SNOW  32  32  99 SE9       29.85F VSB 1   WCI  24
LADYSMITH      LGT SNOW  33  32  96 SE9       29.89F WCI  25
EAU CLAIRE     CLOUDY    34  32  92 S14       29.86F FOG     WCI  25
MENOMONIE      MIX PCPN  34  33  98 SE9       29.86F WCI  26
NEW RICHMOND   LGT SNOW  33  33 100 SE8       29.82F WCI  26
OSCEOLA        LGT SNOW  33  33 100 SE8       29.83F WCI  27
$$

WIZ003>005-009-010-017-018-212000-
NORTH CENTRAL WISCONSIN

CITY           SKY/WX    TMP DP  RH WIND       PRES   REMARKS
MANITOWISH WTR LGT SNOW  30  30 100 S10       29.88F WCI  21
ARBOR VITAE    LGT SNOW  32  30  92 S9        29.89F WCI  24
WOODRUFF       LGT SNOW  32  30  92 S9        29.89F WCI  24
RHINELANDER    LGT SNOW  30  29  96 S8G17     29.91F FOG     WCI  22
EAGLE RIVER    LGT SNOW  30  30  99 S8        29.91F WCI  23
LAND O LAKES   CLOUDY    31  30  94 S8G16     29.91F FOG     WCI  24
PHILLIPS       LGT SNOW  31  29  94 S12       29.88F WCI  22
TOMAHAWK       LGT SNOW  31  29  94 CALM      29.92F
MEDFORD        SNOW      31  31  99 S12       29.90F VSB 1/2 WCI  22
MERRILL        CLOUDY    31  31 100 S5        29.94F FOG     WCI  27
$$

WIZ029-030-035-036-043>047-212000-
CENTRAL WISCONSIN

CITY           SKY/WX    TMP DP  RH WIND       PRES   REMARKS
WAUSAU         LGT SNOW  32  31  96 SE12      29.93F FOG     WCI  23
MOSINEE        LGT SNOW  32  32 100 SE10      29.95F FOG     WCI  24
MARSHFIELD     FOG       33  31  92 S10       29.91F VSB 1/4 WCI  25
STEVENS POINT  CLOUDY    32  31  97 S9        29.97F FOG     WCI  24
WAUPACA        CLOUDY    36  32  85 SE9       30.02F FOG     WCI  29
WAUTOMA        NOT AVBL
WISC RAPIDS    CLOUDY    34  31  88 S9        29.96F FOG     WCI  27
CAMP DOUGLAS   CLOUDY    36  36 100 SE9       29.94F FOG     WCI  29
$$

WIZ011>013-019>022-031-037>040-048>050-212000-
NORTHEAST WISCONSIN

CITY           SKY/WX    TMP DP  RH WIND       PRES   REMARKS
ANTIGO         FOG       29  29 100 S12       29.95F VSB 1/2 WCI  20
SHAWANO        CLOUDY    35  32  88 S6        30.03F FOG     WCI  30
OCONTO         CLOUDY    34  32  93 S8        30.04F WCI  27
STURGEON BAY   CLOUDY    36  30  80 S13       30.06F WCI  27
GREEN BAY      CLOUDY    34  31  88 S7        30.04F FOG     WCI  28
MANITOWOC      NOT AVBL
APPLETON       CLOUDY    34  32  93 S12G17    30.03F FOG     WCI  25
CLINTONVILLE   CLOUDY    34  32  93 S9        30.02F FOG     WCI  26
OSHKOSH        CLOUDY    36  31  82 S9        30.03F HAZE    WCI  29
$$

WIZ032>034-041-042-053>061-212000-
SOUTHWEST WISCONSIN

CITY           SKY/WX    TMP DP  RH WIND       PRES   REMARKS
LA CROSSE      CLOUDY    39  34  82 S15       29.90F HAZE    WCI  31
SPARTA         CLOUDY    36  35  96 S8        29.94F FOG     WCI  29
VIROQUA        CLOUDY    35  35 100 S12G18    29.92F WCI  26
BOSCOBEL       CLOUDY    39  33  79 S8        29.97F HAZE    WCI  33
PRAIRIE DU CHI CLOUDY    39  33  77 S5        29.96F
PLATTEVILLE    CLOUDY    37  34  90 S14       29.99F WCI  28
$$

WIZ056-057-062-063-064-067-068-212000-
SOUTH CENTRAL WISCONSIN

CITY           SKY/WX    TMP DP  RH WIND       PRES   REMARKS
REEDSBURG      CLOUDY    35  32  89 S6        29.98F FOG     WCI  30
BARABOO/DELLS  CLOUDY    35  32  88 S14       29.98F FOG     WCI  26
LONE ROCK      NOT AVBL
MINERAL POINT  CLOUDY    36  34  93 S14       29.97F FOG     WCI  27
MADISON        CLOUDY    35  32  88 S15       30.02F FOG     WCI  25
MIDDLETON      CLOUDY    36  34  92 S13G18    30.02F WCI  27
WATERTOWN      CLOUDY    34  32  94 S9G16     30.05F FOG     WCI  26
MONROE         CLOUDY    34  32  93 S15       30.01F WCI  24
JANESVILLE     CLOUDY    37  34  87 S10       30.05F FOG     WCI  30
$$

WIZ051-052-058>065-066-070>072-212000-
SOUTHEAST WISCONSIN

CITY           SKY/WX    TMP DP  RH WIND       PRES   REMARKS
MILWAUKEE      CLOUDY    36  29  75 S12       30.09F WCI  28
WAUKESHA       CLOUDY    34  30  86 S12       30.07F FOG     WCI  25
MILWAUKEE/TIMM CLOUDY    36  28  75 S9        30.08F WCI  29
RACINE         CLOUDY    36  30  79 S10       30.11F WCI  28
BURLINGTON     CLOUDY    33  30  86 S6        30.09F WCI  28
KENOSHA        CLOUDY    36  30  79 S13       30.10F WCI  27
FOND DU LAC    CLOUDY    35  31  85 S10       30.04F WCI  27
SHEBOYGAN      CLOUDY    35  30  82 S8        30.07F WCI  29
WEST BEND      CLOUDY    34  30  86 S6        30.06F WCI  29
JUNEAU         CLOUDY    34  31  91 S13       30.05F FOG     WCI  25
$$

LSZ147-162-212000-
LAKE SUPERIOR

STATION/POSITION TIME  TEMP    WIND        PRES    WAVE
                       AIR SEA DIR/SP/G            HT/PER
                 (UTC) (F)     (DEG/KT/KT) (MB)    (FT/S)
DEVILS ISLAND    1800   34     160/  5/  7 1013.2F
PORT WING        1800   34     160/  4/  5 1011.9F
SAXON HARBOR     1800   36      CALM  / 13 1012.2F
$$

LMZ867-665-643>646-212000-
LAKE MICHIGAN

STATION/POSITION TIME  TEMP    WIND        PRES    WAVE
                       AIR SEA DIR/SP/G            HT/PER
                 (UTC) (F)     (DEG/KT/KT) (MB)    (FT/S)
CHAMBERS ISLAND  1800   36     140/  5/ 11 1018.3F
NORTHPORT PIER   1800   37     160/  7/ 12 1018.6F
SISTER BAY       1813          160/ 15/ 18   N/A
ALGOMA LAKESHORE 1800          230/ 16/ 18   N/A
KEWAUNEE LAKESHO 1800   36     190/ 14/ 17 1018.1F
SHEBOYGAN LAKESH 1800   36 34  180/ 15/ 18 1019.9F
PORT WASHINGTON  1800   37     180/ 11/ 15 1020.0
MILWAUKEE LAKESH 1800   36     190/ 13/ 16   N/A
KENOSHA   LAKESH 1800   35     180/ 13/ 16 1020.0F
$$

TC  - TEMPERATURE IN CELSIUS
VSB - VISIBILITY IN STATUTE MILES
WCI - WIND CHILL INDEX
HX  - HEAT INDEX



USA.gov is the U.S. government's official web portal to all federal, state and local government web resources and services.